sat.trackr.live / text

‹ back to catalog

STARLINK-5684

NORAD 55453 · 2023-015E

PAYLOAD ACTIVE UNKNOWN

§ Identity

Operator
Country
US
Launch date
2023-02-02
Launch site
AFETR
Launch vehicle
Mass (kg)
RCS (m²)

Purposes: comms

External: N2YO · Heavens-Above · Gunter

§ Orbital elements

Epoch: 2026-09-20T14:28:59.738016Z

Period
94.27 min
Inclination
43.0021°
Eccentricity
0.0001432
Mean motion
15.27578054 rev/d
Perigee alt
482.1 km
Apogee alt
484.0 km
Semi-major
6,861.2 km
B*
2.1213e-5
RAAN
307.7841°
Arg perigee
275.2376°
Mean anomaly
84.8312°
Rev number
20,053

§ Raw data

STARLINK-56841 55453U 23015E   26263.60346919  .00000322  00000+0  21213-4 0  99992 55453  43.0021 307.7841 0001432 275.2376  84.8312 15.27578054200536

JSON: /api/v1/satellites/55453 · /tle

For live sub-satellite position, see the globe view (requires WebGL).

§ Visibility from observer

Set your observer location to see the next 7 days of passes ≥ 10°. The values pass through the URL so the page stays shareable.

No JS? Fill the form by hand. The geolocation button needs JavaScript.